Preview of NWS' New Version of Forecast
This preview is not operational and should not be used for support decisions.

Regional Weather Roundup (RWR)

Issued by National Weather Service (NWS)

                            
527 
ASUS46 KPQR 212310
RWROR 

OREGON REGIONAL WEATHER ROUNDUP
NATIONAL WEATHER SERVICE PORTLAND OR
400 PM PDT THU JUN 21 2018

NOTE: "FAIR" INDICATES FEW OR NO CLOUDS BELOW 12,000 FEET WITH
NO SIGNIFICANT WEATHER AND/OR OBSTRUCTIONS TO VISIBILITY.

ORZ001>013-220000-
NORTHWEST OREGON

  
CITY           SKY/WX    TMP DP  RH WIND       PRES   REMARKS
ASTORIA        CLOUDY    64  54  69 W10       30.18R                  
TILLAMOOK      CLOUDY    63  55  77 CALM      30.20S                  
NEWPORT        CLOUDY    61  55  82 NW8       30.21F                  
PORTLAND       CLOUDY    69  55  60 CALM      30.14S                  
VANCOUVER WA   CLOUDY    68  58  70 NW6       30.14S                  
SCAPPOOSE      CLOUDY    67  57  70 CALM      30.14S                  
HILLSBORO      PTSUNNY   70  56  61 NE3       30.14S                  
AURORA         CLOUDY    69  54  58 S3        30.15S                  
MCMINNVILLE    CLOUDY    70  57  63 S7        30.13F                  
SALEM          PTSUNNY   73  53  49 N7        30.12F                  
CORVALLIS      SUNNY     75  55  49 NW10G17   30.13F                  
EUGENE         MOSUNNY   73  54  51 E5        30.12F                  
$$

ORZ021-028-220000-
SOUTHWEST OREGON

  
CITY           SKY/WX    TMP DP  RH WIND       PRES   REMARKS
NORTH BEND     MOSUNNY   65  52  62 N13       30.19S                  
BROOKINGS      SUNNY     65  53  65 NW16      30.12F                  
ROSEBURG       SUNNY     79  54  41 N10       30.09S                  
SEXTON SUMMIT  SUNNY     76  40  27 VRB3      30.17S                  
GRANTS PASS    FAIR      88  34  14 VRB5      30.04F                  
MEDFORD        MOSUNNY   88  36  15 NW12G20   30.01F                  
$$

ORZ014>016-041-220000-
COLUMBIA GORGE

  
CITY           SKY/WX    TMP DP  RH WIND       PRES   REMARKS
TROUTDALE      CLOUDY    70  56  61 NW5       30.13F                  
HOOD RIVER     SUNNY     72  54  53 W18G29    30.03F                  
THE DALLES     SUNNY     80  54  40 NW23G31   29.97F                  
$$

ORZ029>031-041-044-049-050-061>064-502-503-505>511-220000-
EASTERN OREGON

  
CITY           SKY/WX    TMP DP  RH WIND       PRES   REMARKS
MADRAS         SUNNY     82  52  34 NE5       30.05F                  
REDMOND        MOSUNNY   85  45  24 CALM      30.06F                  
BEND           SUNNY     86  43  22 N9        30.07F                  
PRINEVILLE     SUNNY     81  43  26 CALM      30.08S                  
KLAMATH FALLS  MOSUNNY   82  45  27 VRB5      30.11F                  
LAKEVIEW       MOSUNNY   79  44  28 S5        30.16F                  
HERMISTON      MOSUNNY   96  50  20 W12G17    29.89F HX  93           
PENDLETON      PTSUNNY   85  49  28 NW12      29.94F                  
JOHN DAY       MOSUNNY   79  51  37 N6        30.10S                  
MEACHAM        MOSUNNY   72  52  49 VRB3      30.08S                  
LA GRANDE      MOSUNNY   74  58  57 NE5       30.04F HAZE             
BAKER CITY     SUNNY     78  56  46 CALM      30.07F                  
BURNS          MOSUNNY   78  44  29 W10       30.12F                  
ROME             N/A     84  38  19 NW14G23   30.09F                  
ONTARIO        SUNNY     85  48  27 N14G23    30.01F                  
$$